Location: Hillenberg
(50.4938°N, 10.1023°E)
Time: 21:36:32
(UTC+00:00)

Daily predictions for brighter satellites

Satellite Brightness Start Highest point End
(mag) Time Altitude Azimuth Time Altitude Azimuth Time Altitude Azimuth
COSMOS 2428 2.7 16:56:45 10° NNW 17:02:30 78° ENE 17:08:14 10° SSE
Cosmos 1674 Rocket 3.9 17:01:51 10° SSE 17:06:00 44° E 17:10:13 10° NNE
SMAP 4.1 17:01:30 10° S 17:06:02 52° W 17:10:36 10° NNW
Cosmos 1802 Rocket 4.2 17:00:16 10° N 17:06:43 89° WSW 17:13:09 10° S
Cosmos 2237 Rocket 2.6 17:01:30 10° NNW 17:06:53 42° NE 17:12:17 10° ESE
Lacrosse 5 rocket 1.1 17:04:01 10° WSW 17:07:28 71° NNW 17:11:03 10° NE
IRS-P3 4.1 17:02:35 10° SSE 17:07:54 74° ENE 17:13:14 10° NNW
Cosmos 2285 Rocket 4.2 17:02:14 10° NNW 17:08:32 51° ENE 17:14:44 10° SE
Cosmos 2233 Rocket 4.0 17:06:38 10° N 17:12:54 68° ENE 17:19:11 10° SSE
Cosmos 2219 Rocket 4.1 17:08:14 10° NW 17:13:16 35° WSW 17:18:16 10° S
SJ-6B 4.1 17:14:48 10° ESE 17:16:58 16° ENE 17:19:08 10° NNE
CARTOSAT-1 4.1 17:15:13 10° SE 17:19:03 35° ENE 17:22:54 10° N
Cosmos 1867 3.7 17:13:45 10° SW 17:19:12 82° NW 17:24:42 10° NE
USA 267 3.3 17:13:18 10° ENE 17:19:53 87° NNW 17:26:27 10° WSW
Cosmos 1725 Rocket 4.2 17:14:08 10° NNW 17:20:23 79° W 17:26:39 10° S
Aureole 3 Rocket 3.2 17:17:56 10° N 17:21:49 36° ENE 17:24:56 10° SE
NOSS 0 Rocket 4.0 17:17:14 10° NNW 17:23:33 85° ENE 17:29:47 10° SSE
SJ-7 4.5 17:20:52 10° SE 17:24:21 43° ENE 17:27:52 10° N
Cosmos 2322 4.2 17:19:15 10° NNW 17:24:56 68° WSW 17:30:36 10° SSE
UNK 4.5 17:21:43 10° N 17:26:12 57° WNW 17:30:40 10° SSW
Cosmos 2151 Rocket 3.7 17:26:12 10° NNW 17:30:43 82° W 17:35:12 10° S
SL-16 R/B 3.3 17:26:57 10° NNW 17:31:37 25° NE 17:35:24 13° E
Meteor 1-31 Rocket 4.4 17:32:45 13° ENE 17:32:45 13° ENE 17:34:14 10° NNE
Cosmos 1814 Rocket 4.2 17:27:47 10° SSW 17:33:04 80° WNW 17:38:20 10° NNE
Cosmos 2227 Rocket 3.5 17:30:15 10° SE 17:34:00 18° E 17:36:55 13° ENE
SAR-Lupe-1 4.3 17:31:57 10° S 17:35:31 73° WSW 17:39:06 10° NNW
Cosmos 1315 Rocket 3.7 17:34:12 10° NNW 17:37:54 51° W 17:41:35 10° S
SL-19 R/B 4.5 17:31:57 10° SE 17:38:00 61° ENE 17:43:48 10° N
ATLAS 5 CENTAUR R/B 4.0 17:34:25 10° WNW 17:38:09 27° WSW 17:42:33 10° S
Cosmos 2061 Rocket 4.1 17:31:44 10° N 17:38:10 88° E 17:44:29 10° S
Cosmos 1125 Rocket 3.4 17:33:01 10° NNW 17:38:14 85° ENE 17:43:26 10° SSE
Cosmos 1607 3.9 17:32:21 10° SW 17:38:29 89° SE 17:44:44 10° NE
SL-16 R/B 4.1 17:36:00 10° N 17:41:29 35° WNW 17:46:59 10° WSW
Cosmos 1455 Rocket 3.2 17:38:31 10° N 17:42:41 46° ENE 17:46:48 10° SSE
ARIANE 6 FM1 Upper Stage 3.9 17:39:35 10° NNW 17:42:51 24° NNE 17:44:44 17° ENE
CZ-4C R/B 1.8 17:40:03 10° SW 17:44:21 88° SE 17:49:56 10° NE
NOSS 3-3 (C) 3.7 17:39:41 10° SSW 17:44:53 68° SE 17:51:08 10° NE
Cosmos 1975 Rocket 4.1 17:41:49 10° SE 17:45:17 23° E 17:48:44 10° NE
BREEZE-M DEB (TANK) 3.7 17:41:18 10° WNW 17:45:29 60° SSW 17:52:33 10° SE
DNEPR-1 R/B 4.3 17:41:03 10° NNW 17:45:34 45° NE 17:49:52 15° ESE
USA 306 4.0 17:43:36 10° W 17:45:41 19° SW 17:47:15 10° S
YAOGAN 1 2.6 17:42:26 10° S 17:46:42 79° WSW 17:50:59 10° NNW
Cosmos 158 Rocket 4.3 17:43:06 10° SW 17:47:54 63° WNW 17:52:46 10° NNE
SeaSat 1 3.7 17:43:56 10° S 17:48:36 45° WSW 17:53:19 10° NW
Cosmos 1464 Rocket 4.3 17:45:15 10° N 17:51:19 43° ENE 17:57:17 10° SE
NOAA 6 4.0 17:49:25 10° SSE 17:54:34 79° ENE 17:59:45 10° NNW
Spot 4 Rocket 4.1 17:50:03 10° SSE 17:55:09 86° WSW 18:00:18 10° NNW
COSMO-SKYMED 1 2.3 17:51:38 10° NNE 17:55:46 73° ESE 17:59:51 10° S
Cosmos 2228 3.5 17:52:22 10° N 17:56:16 36° ENE 18:00:09 10° SE
Okean 1 Rocket 3.4 17:52:34 10° NNW 17:56:58 68° W 18:01:17 10° S
CZ-4 R/B 3.0 17:58:02 16° NE 17:58:02 16° NE 17:59:31 10° NNE
PSLV R/B 3.3 17:53:09 10° SSE 17:57:16 86° ENE 18:01:24 10° NNW
CZ-4B R/B 4.4 17:58:27 19° ENE 17:59:13 20° NE 18:02:55 10° N
Okean 2 Rocket 3.8 17:54:57 10° NNW 17:59:17 56° W 18:03:32 10° S
Cosmos 2221 Rocket 3.6 17:55:42 10° S 18:00:10 88° W 18:04:43 10° N
SPOT 5 3.7 18:00:21 20° ESE 18:02:47 31° ENE 18:07:14 10° N
Cosmos 773 Rocket 4.3 17:58:45 10° S 18:03:41 42° ESE 18:08:39 10° NE
BREEZE-M (TANK) 3.4 18:04:45 10° W 18:07:17 45° SSW 18:12:02 14° SE
Radarsat Rocket 4.3 18:02:27 10° S 18:08:17 72° WSW 18:14:38 10° NNW
CZ-2D R/B 4.3 18:06:46 10° S 18:10:34 50° W 18:14:29 10° NNW
RESURS DK-1 4.5 18:10:03 10° N 18:11:22 12° NNE 18:11:22 12° NNE
NOSS 3-3 (A) 3.9 18:07:15 10° SW 18:12:32 77° NW 18:18:19 13° NE
CSL-04 Rocket 4.0 18:11:32 19° SE 18:14:55 41° ENE 18:19:52 10° N
IRAS Rocket 4.2 18:11:15 10° SSE 18:16:51 79° ENE 18:22:30 10° NNW
Cosmos 2297 Rocket 2.1 18:12:28 10° SSW 18:18:07 80° ESE 18:23:48 10° NNE
Tiangong 0.4 18:17:38 10° S 18:18:49 12° SSE 18:18:49 12° SSE
Cosmos 1025 Rocket 4.2 18:16:16 10° SSW 18:20:23 44° WNW 18:24:34 10° N
Cosmos 1943 4.4 18:16:08 10° NNW 18:20:45 24° NE 18:21:38 23° NE
Cosmos 836 Rocket 4.4 18:15:50 10° SSW 18:21:04 69° ESE 18:26:21 10° NNE
Orbus 7S? 4.2 18:13:27 10° WNW 18:22:34 88° SW 18:24:45 31° SE
Resurs 01 Rocket 1.8 18:18:26 10° S 18:22:49 74° WSW 18:27:15 10° NNW
Cosmos 2150 Rocket 3.8 18:17:41 10° NNW 18:22:53 75° ENE 18:27:13 15° SSE
Cosmos 2298 Rocket 3.9 18:19:56 10° NNW 18:25:15 75° ENE 18:29:31 16° SSE
NOSS 3-4 (A) 3.9 18:23:57 10° NW 18:30:38 80° SW 18:37:51 13° SE
Cosmos 2344 3.9 18:23:34 10° S 18:30:39 37° ESE 18:32:55 30° E
NOSS 3-4 (C) 3.9 18:24:13 10° NW 18:30:55 81° SW 18:38:02 13° SE
Cosmos 1782 2.6 18:28:27 10° N 18:31:37 55° NE 18:31:37 55° NE
BREEZE-M DEB (TANK) 4.4 18:10:04 10° WSW 18:33:30 64° S 18:36:50 32° ESE
CRYOSAT 2 4.5 18:30:26 10° N 18:35:21 77° W 18:40:13 10° SSW
Helios 1A Rocket 4.5 18:39:27 17° S 18:39:27 17° S 18:40:18 10° S
CZ-4B R/B 3.6 18:43:53 73° ESE 18:44:08 77° ENE 18:48:03 10° N
Lacrosse 5 rocket 2.3 18:41:34 10° WNW 18:44:44 30° N 18:44:56 29° N
PAYLOAD B 4.4 18:45:53 45° E 18:46:52 51° ENE 18:52:18 10° N
ATLAS 2AS CENTAUR R/B 4.1 18:42:17 10° WNW 18:48:01 27° N 18:51:31 18° NE
Cosmos 2263 Rocket 3.0 18:43:00 10° S 18:46:40 33° SE 18:46:40 33° SE
Terra 3.2 18:51:38 24° NNE 18:51:38 24° NNE 18:53:56 10° N
SJ-6B 3.5 18:46:44 10° S 18:50:01 45° W 18:53:21 10° NNW
Cosmos 2237 Rocket 3.4 18:45:39 10° NW 18:50:57 41° WSW 18:56:13 10° S
TSX-5 4.3 18:48:23 10° NNW 18:53:39 57° NE 18:53:39 57° NE
Okean O Rocket 4.0 19:01:58 12° NNE 19:01:58 12° NNE 19:02:25 10° N
Cosmos 44 Rocket 3.2 18:56:29 10° SW 19:01:27 90° E 19:02:15 64° NE
USA 267 3.7 18:59:48 32° NE 19:02:40 54° N 19:08:58 10° W
ERS-1 Rocket 3.7 19:04:25 39° NNE 19:04:25 39° NNE 19:07:53 10° N
Meteor 1-31 Rocket 4.1 19:06:44 30° NNW 19:06:44 30° NNW 19:08:41 10° NNW
Cosmos 1816 Rocket 4.4 18:59:22 10° S 19:05:32 87° W 19:11:49 10° N
Cosmos 2034 Rocket 3.9 19:02:19 10° N 19:08:31 86° W 19:13:44 15° S
ADEOS 3.8 19:12:55 55° NNE 19:12:55 55° NNE 19:17:15 10° N
Cosmos 1544 Rocket 4.0 19:10:47 10° NNW 19:14:21 57° NW 19:14:21 57° NW
SL-16 R/B 2.2 19:10:42 10° NNW 19:16:22 81° WSW 19:17:18 63° S
Cosmos 1634 Rocket 3.9 19:10:35 10° N 19:16:55 67° ENE 19:17:04 67° E
Cosmos 2227 Rocket 2.1 19:11:39 10° SSW 19:17:18 84° WNW 19:18:49 51° NNE
ARIANE 6 FM1 Upper Stage 4.0 19:18:22 10° NW 19:20:45 35° NW 19:20:45 35° NW
Cosmos 1975 Rocket 4.3 19:18:40 10° SW 19:22:47 40° WNW 19:26:53 10° N
Gblst 52 Del rocket 4.4 19:23:18 10° W 19:30:41 85° N 19:31:10 78° ENE
CZ-4 R/B 3.5 19:33:01 20° NNW 19:33:01 20° NNW 19:34:21 10° NNW
CZ-4C R/B 3.6 19:29:01 10° W 19:33:20 30° NNW 19:35:03 26° N
CZ-4B R/B 3.5 19:40:18 57° NNW 19:40:18 57° NNW 19:44:31 10° NNW
SPOT 5 4.0 19:39:23 36° SW 19:40:34 43° W 19:45:24 10° NNW
Cosmos 2279 Rocket 4.5 19:34:38 10° N 19:39:08 48° NNE 19:39:08 48° NNE
MOS 1 4.4 19:43:59 71° WNW 19:43:59 71° WNW 19:49:17 10° NNW
Cosmos 2297 Rocket 4.1 19:58:08 10° W 20:02:48 25° NW 20:06:06 16° N
Cosmos 1943 4.2 19:59:46 10° NNW 20:03:25 41° NNW 20:03:25 41° NNW
Terra 4.3 20:30:15 18° NW 20:30:15 18° NW 20:31:34 10° NNW
Cosmos 2263 Rocket 4.3 20:26:41 10° WSW 20:28:28 20° WSW 20:28:28 20° WSW
ATLAS 2AS CENTAUR R/B 4.1 20:34:38 10° NW 20:38:56 30° N 20:38:56 30° N
Cosmos 2344 4.1 20:37:14 10° WSW 20:43:00 49° W 20:43:00 49° W
USA 267 4.2 20:47:08 41° NW 20:47:08 41° NW 20:51:31 10° WNW
Cosmos 2227 Rocket 4.5 20:57:51 10° W 21:00:43 20° WNW 21:00:43 20° WNW
